Location: Stuttgart
(48.8069°N, 9.1544°E)
Time: 03:06:37
(UTC+02:00)

ISS - Pass Details

Date: 17 May 2021
Orbit: 417 x 422 km, 51.6° (Epoch: 15 June)

Event Time Altitude Azimuth Distance (km) Brightness Sun altitude
Rises 23:39:17 0° 266° (W) 2,364 0.3 -18.1°
Reaches altitude 10° 23:41:25 10° 271° (W) 1,502 -0.6 -18.2°
Maximum altitude 23:44:44 56° 351° (N) 508 -3.1 -18.4°
Drops below altitude 10° 23:48:04 10° 71° (ENE) 1,507 -1.0 -18.7°
Enters shadow 23:49:41 - 74° (ENE) 2,160 -0.2 -18.8°
